This is the latest recevied weather packets stored in our database for station/object M0TUM-1. If no packets are shown the sender has not sent any weather packets the latest 10 day(s).
| Time | Temp. | Humidity | Pressure | Rain* | Wind** | Luminosity | Snow |
|---|---|---|---|---|---|---|---|
| 1778168827 | 12.78° C | 65% | 1016.4 hPa | 0 mm | - | 161 W/m² | - |
| 1778168525 | 12.78° C | 65% | 1016.5 hPa | 0 mm | - | 155 W/m² | - |
| 1778168221 | 12.22° C | 66% | 1016.6 hPa | 0 mm | - | 141 W/m² | - |
| 1778167918 | 12.78° C | 65% | 1016.4 hPa | 0 mm | - | 121 W/m² | - |
| 1778167614 | 12.22° C | 65% | 1016.4 hPa | 0 mm | - | 102 W/m² | - |
| 1778167310 | 12.78° C | 65% | 1016.4 hPa | 0 mm | - | 77 W/m² | - |
| 1778167006 | 12.78° C | 64% | 1016.5 hPa | 0 mm | - | 66 W/m² | - |
| 1778166703 | 12.78° C | 64% | 1016.5 hPa | 0 mm | - | 66 W/m² | - |
| 1778166400 | 12.78° C | 64% | 1016.4 hPa | 0 mm | - | 69 W/m² | - |
| 1778166097 | 12.78° C | 64% | 1016.5 hPa | 0 mm | - | 71 W/m² | - |
| 1778165792 | 12.78° C | 63% | 1016.5 hPa | 0 mm | - | 72 W/m² | - |
| 1778165490 | 12.78° C | 63% | 1016.6 hPa | 0 mm | - | 75 W/m² | - |
| 1778165186 | 12.78° C | 63% | 1016.4 hPa | 0 mm | - | 85 W/m² | - |
| 1778164885 | 12.78° C | 63% | 1016.5 hPa | 0 mm | - | 89 W/m² | - |
| 1778164581 | 12.78° C | 63% | 1016.6 hPa | 0 mm | - | 101 W/m² | - |
| 1778164278 | 13.33° C | 62% | 1016.6 hPa | 0 mm | - | 120 W/m² | - |
| 1778163973 | 13.33° C | 62% | 1016.6 hPa | 0 mm | - | 146 W/m² | - |
| 1778163671 | 13.33° C | 61% | 1016.5 hPa | 0 mm | - | 171 W/m² | - |
| 1778163367 | 13.33° C | 61% | 1016.4 hPa | 0 mm | - | 179 W/m² | - |
| 1778163064 | 13.33° C | 61% | 1016.7 hPa | 0 mm | - | 190 W/m² | - |
| 1778162760 | 13.33° C | 62% | 1016.5 hPa | 0 mm | - | 190 W/m² | - |
| 1778162457 | 13.33° C | 62% | 1016.7 hPa | 0 mm | - | 195 W/m² | - |
| 1778162154 | 13.33° C | 62% | 1016.7 hPa | 0 mm | - | 196 W/m² | - |
| 1778161852 | 13.33° C | 62% | 1016.7 hPa | 0 mm | - | 140 W/m² | - |
| 1778161548 | 13.33° C | 62% | 1016.6 hPa | 0 mm | - | 142 W/m² | - |
* Rain latest hour (hover to see other rain measurements)
** Current wind speed in m/s (hover to see current wind gust speed)